Location: Warszawa
(52.2500°N, 21.0000°E)
Time: 16:01:55
(UTC+01:00)

Vanguard 2 - Pass Details

Date: 16 February 2023
Orbit: 553 x 2927 km, 32.9° (Epoch: 24 March)

Event Time Altitude Azimuth Distance (km) Brightness Sun altitude
Rises 23:21:49 0° 259° (W) 5,209 11.8 -49.5°
Enters shadow 23:23:03 - 255° (WSW) 5,038 11.7 -49.6°
Reaches altitude 10° 23:26:53 10° 240° (WSW) 4,655 - -49.6°
Maximum altitude 23:33:59 16° 208° (SSW) 4,643 - -49.8°
Drops below altitude 10° 23:42:16 10° 177° (S) 5,558 - -49.9°
Sets 23:49:31 0° 160° (SSE) 6,749 - -49.9°
